Regional Weather Roundup
Issued by NWS

Home | Current Version | Previous Version | Text Only | Print | Product List | Glossary On
Versions: 1 2 3 4 5 6 7 8 9 10 11 12 13 14 15 16 17 18 19 20 21 22 23 24 25 26 27 28 29
000
ASUS44 KLIX 011511
RWRLA
LOUISIANA WEATHER ROUNDUP
NATIONAL WEATHER SERVICE NEW ORLEANS LA
1000 AM CDT SUN MAY 01 2016

NOTE: "FAIR" INDICATES FEW OR NO CLOUDS BELOW 12,000 FEET WITH NO
      SIGNIFICANT WEATHER AND/OR OBSTRUCTIONS TO VISIBILITY.
      SKY/WX - SKY CONDITION AND SIGNIFICANT WEATHER.
      TMP - AIR TEMPERATURE.    DP   - DEWPOINT TEMPERATURE.
      RH  - RELATIVE HUMIDITY.  PRES - PRESSURE.
      HX  - HEAT INDEX.         WCI  - WIND CHILL INDEX.

*  THESE STATIONS ARE NOT NWS OR FAA STATIONS AND ARE NOT UNDER
   NWS QUALITY CONTROL.

LAZ040-048-061>063-065-066-069-011600-
SOUTHEAST LOUISIANA

CITY           SKY/WX    TMP DP  RH WIND       PRES   REMARKS
N.O. AUDUBON   NOT AVBL
N.O. INTL ARPT CLOUDY    77  73  87 S10       29.92R
N.O. LAKEFRONT CLOUDY    73  73 100 SE12      29.93R FOG
N.O. DOWNTOWN* CLOUDY    77  74  90 VRB6      29.93R
RESERVE*       CLOUDY    77  74  88 E7        29.89S THUNDER FOG
SLIDELL        CLOUDY    76  75  97 SE6       29.92R
BATON ROUGE    HVY RAIN  66  63  90 E9        29.98S FOG
BOOTHVILLE     CLOUDY    79  74  84 SE12G18   29.93F
BELLE CHASSE   CLOUDY    77  74  90 SE9       29.92R FOG
BOGALUSA*      CLOUDY    73  70  89 NW3       29.98R
GALLIANO*      CLOUDY    78  74  87 SE12G18   29.91R
NEW ROADS*     TSTM      68  65  92 SE21G32   29.90F
GONZALES*      TSTM      68  68 100 NW20G28   29.96R VSB 1/2
HAMMOND*       TSTM      73  70  88 NE6       29.95R
HOUMA*         PTSUNNY   77  75  94 SE15G23   29.89F FOG
PORT FOURCHON* SUNNY     79  75  89 SE14G21   29.91R FOG

$$

LAZ041-044-053-054-011600-
SOUTHWEST LOUISIANA

CITY           SKY/WX    TMP DP  RH WIND       PRES   REMARKS
LAKE CHARLES   TSTM      67  65  93 SE7       29.89F FOG
LAFAYETTE      CLOUDY    69  66  90 VRB3      29.93R
PATTERSON      NOT AVBL
SALT POINT       N/A     73  73 100 N12G20    29.94R
NEW IBERIA     LGT RAIN  68  66  93 E12       29.93F
CHENAULT AIRPK TSTM      68  66  94 SE9G17    29.89R

$$

LAZ027-028-011600-
CENTRAL LOUISIANA

CITY           SKY/WX    TMP DP  RH WIND       PRES   REMARKS
FORT POLK      MOSUNNY   74  69  82 E8        29.89R
ALEXANDRIA INT CLOUDY    75  68  78 S3        29.87F
ALEXANDRIA     CLOUDY    75  71  87 CALM      29.88F

$$

LAZ001-002-011600-
NORTHWEST LOUISIANA

CITY           SKY/WX    TMP DP  RH WIND       PRES   REMARKS
SHREVEPORT     PTSUNNY   75  67  76 N10       29.91R
BARKSDALE AFB  CLOUDY    72  68  88 E7        29.91R
DTN SHREVEPORT CLOUDY    73  66  78 NE8       29.91R

$$

LAZ014-016-011600-
NORTHEAST LOUISIANA

CITY           SKY/WX    TMP DP  RH WIND       PRES   REMARKS
MONROE         MOSUNNY   76  69  79 SE6       29.90S
TALLULAH       TSTM      69  66  90 SE3       29.97R VSB 3/4

$$





USA.gov is the U.S. government's official web portal to all federal, state and local government web resources and services.